�N����,����,�~����,�C��,���x,�C��,����,���ϕ���,�ő�u�ԕ���,�ő厞����,���˗�,�I�_���x,�n�����x,�ő啗���N��,DTYPE
"17/08/12","00:10",0.0,26.8,84.3,997.4,306.6,0.7,1.6,348.2,0.00,24.0,27.5,"00:00:24",1
"17/08/12","00:20",0.0,26.6,84.8,997.9,322.6,0.8,1.8,344.8,0.00,23.9,27.4,"00:18:56",1
"17/08/12","00:30",0.0,26.5,85.2,997.7,328.9,1.1,2.6,331.2,0.00,23.9,27.5,"00:21:12",1
"17/08/12","00:40",0.0,26.3,85.6,997.7,333.4,0.8,2.1,344.8,0.00,23.7,27.2,"00:31:36",1
"17/08/12","00:50",0.0,26.2,86.1,997.9,343.9,1.1,2.1,345.4,0.00,23.7,27.6,"00:43:28",1
"17/08/12","01:00",0.0,26.0,86.7,997.9,319.2,0.7,1.7,324.1,0.00,23.6,27.3,"00:59:28",1
"17/08/12","01:10",0.0,25.9,87.3,997.7,341.0,1.1,2.2,336.2,0.00,23.7,27.4,"01:03:04",1
"17/08/12","01:20",0.0,25.8,87.6,997.9,334.8,1.0,1.8,324.7,0.00,23.6,27.2,"01:14:08",1
"17/08/12","01:30",0.0,25.7,87.9,997.7,345.3,1.0,2.0,343.2,0.00,23.6,27.2,"01:22:00",1
"17/08/12","01:40",0.0,25.6,88.5,997.9,331.4,1.6,2.8,344.6,0.00,23.6,27.1,"01:39:12",1
"17/08/12","01:50",0.0,25.7,88.4,997.7,316.7,1.1,2.1,326.9,0.00,23.7,26.9,"01:42:16",1
"17/08/12","02:00",0.0,25.8,88.1,998.2,322.8,1.3,2.7,332.2,0.00,23.7,26.9,"01:51:28",1
"17/08/12","02:10",0.0,25.9,87.4,997.9,328.2,1.7,3.4,345.6,0.00,23.7,27.2,"02:06:40",1
"17/08/12","02:20",0.0,26.0,86.8,998.4,329.0,2.1,4.8,357.8,0.00,23.7,26.8,"02:11:44",1
"17/08/12","02:30",0.0,26.1,86.7,998.2,307.8,1.2,2.2,318.2,0.00,23.7,27.0,"02:22:16",1
"17/08/12","02:40",0.0,26.0,86.7,998.4,286.8,1.0,1.8,306.2,0.00,23.6,27.0,"02:36:40",1
"17/08/12","02:50",0.0,25.9,86.9,998.4,320.7,1.1,2.5,339.5,0.00,23.6,26.7,"02:48:40",1
"17/08/12","03:00",0.0,25.8,86.9,998.4,322.0,1.2,2.5,334.7,0.00,23.5,26.8,"02:50:48",1
"17/08/12","03:10",0.0,25.8,86.8,998.2,319.9,1.5,2.8,327.6,0.00,23.5,26.9,"03:06:08",1
"17/08/12","03:20",0.0,25.9,86.5,998.6,322.0,1.8,3.4,340.0,0.00,23.5,26.7,"03:12:48",1
"17/08/12","03:30",0.0,25.9,86.6,998.4,344.0,1.6,2.9,325.5,0.00,23.5,26.7,"03:20:08",1
"17/08/12","03:40",0.0,25.7,86.9,998.2,333.2,1.2,2.0,341.5,0.00,23.4,26.9,"03:35:12",1
"17/08/12","03:50",0.0,25.7,87.3,998.6,333.6,1.6,3.6,313.9,0.00,23.5,26.7,"03:40:56",1
"17/08/12","04:00",0.0,25.6,87.6,998.4,334.0,1.0,2.5,352.1,0.00,23.4,26.7,"03:50:08",1
"17/08/12","04:10",0.0,25.5,87.9,998.2,339.4,1.1,2.6,354.1,0.00,23.4,26.7,"04:07:04",1
"17/08/12","04:20",0.0,25.4,88.4,998.6,337.1,1.3,2.8,335.7,0.00,23.4,26.5,"04:19:12",1
"17/08/12","04:30",0.0,25.5,88.3,998.2,348.3,1.2,2.8,319.7,0.00,23.5,26.6,"04:20:32",1
"17/08/12","04:40",0.0,25.5,88.3,998.4,359.3,1.1,2.4,22.1,0.00,23.5,26.7,"04:38:16",1
"17/08/12","04:50",0.0,25.5,88.3,998.6,341.4,1.1,2.2,352.9,0.00,23.5,26.5,"04:40:16",1
"17/08/12","05:00",0.0,25.5,88.3,998.6,349.3,1.3,2.7,342.1,0.00,23.5,26.5,"04:50:32",1
"17/08/12","05:10",0.0,25.5,88.4,999.1,334.8,1.5,2.9,338.5,0.00,23.5,26.4,"05:06:40",1
"17/08/12","05:20",0.0,25.7,87.7,998.9,329.5,1.3,2.7,324.6,0.00,23.5,26.5,"05:15:52",1
"17/08/12","05:30",0.0,25.8,87.3,999.3,333.0,1.6,4.4,347.8,0.00,23.6,26.5,"05:27:28",1
"17/08/12","05:40",0.0,25.8,87.3,999.3,347.6,1.2,3.2,346.8,0.00,23.6,26.6,"05:35:52",1
"17/08/12","05:50",0.0,25.9,87.3,999.1,335.1,1.5,2.5,342.4,0.00,23.7,26.5,"05:46:00",1
"17/08/12","06:00",0.0,25.9,87.3,999.3,327.9,1.2,2.8,338.7,0.00,23.7,26.3,"05:55:04",1
"17/08/12","06:10",0.0,26.1,86.9,999.3,331.6,1.6,3.3,335.1,0.01,23.8,26.3,"06:07:08",1
"17/08/12","06:20",0.0,26.1,86.4,999.3,307.2,1.1,2.4,333.1,0.00,23.7,26.3,"06:15:12",1
"17/08/12","06:30",0.0,26.3,85.7,999.3,333.7,1.7,3.6,352.0,0.01,23.8,26.4,"06:20:32",1
"17/08/12","06:40",0.0,26.4,85.0,999.3,329.2,1.5,3.3,318.9,0.02,23.7,26.4,"06:33:04",1
"17/08/12","06:50",0.0,26.5,84.5,999.6,316.8,1.3,3.4,348.9,0.01,23.7,26.3,"06:44:16",1
"17/08/12","07:00",0.0,26.6,84.0,999.6,335.0,1.5,3.2,330.1,0.02,23.7,26.3,"06:57:20",1
"17/08/12","07:10",0.0,26.7,83.4,999.6,330.5,1.2,2.7,346.9,0.03,23.7,26.3,"07:04:40",1
"17/08/12","07:20",0.0,26.9,83.0,999.8,322.0,1.1,2.4,349.8,0.04,23.8,26.4,"07:12:08",1
"17/08/12","07:30",0.0,27.0,82.5,1000.0,312.4,1.2,3.3,347.2,0.04,23.8,26.4,"07:23:36",1
"17/08/12","07:40",0.0,27.1,81.7,1000.3,307.9,1.1,2.5,328.2,0.05,23.7,26.4,"07:33:52",1
"17/08/12","07:50",0.0,27.2,82.0,1000.0,334.5,1.6,3.2,348.8,0.07,23.9,26.3,"07:47:28",1
"17/08/12","08:00",0.0,27.3,80.9,1000.0,295.7,1.5,3.1,331.3,0.08,23.8,26.5,"07:50:24",1
"17/08/12","08:10",0.0,27.6,79.8,1000.3,326.9,1.3,3.1,319.2,0.10,23.8,26.6,"08:04:56",1
"17/08/12","08:20",0.0,27.7,79.1,1000.3,329.6,1.6,3.9,331.6,0.08,23.8,26.6,"08:13:20",1
"17/08/12","08:30",0.0,27.9,78.9,1000.0,311.2,1.1,2.9,338.8,0.14,23.9,26.6,"08:28:56",1
"17/08/12","08:40",0.0,27.9,77.5,1000.5,337.3,1.3,5.4,343.8,0.11,23.6,26.6,"08:39:52",1
"17/08/12","08:50",0.0,27.7,76.7,1000.5,352.5,1.7,4.2,334.3,0.10,23.3,26.6,"08:40:48",1
"17/08/12","09:00",0.0,27.6,76.7,1000.3,353.0,1.7,3.2,320.1,0.09,23.2,26.8,"08:56:40",1
"17/08/12","09:10",0.0,27.5,75.9,1000.3,352.5,2.3,5.7,23.3,0.11,22.9,26.9,"09:02:56",1
"17/08/12","09:20",0.0,27.6,75.5,1000.5,343.4,2.0,3.9,351.9,0.10,22.9,26.7,"09:18:24",1
"17/08/12","09:30",0.0,28.2,73.1,1000.5,351.1,2.1,4.7,348.6,0.21,23.0,26.7,"09:26:32",1
"17/08/12","09:40",0.0,29.7,69.1,1000.3,348.1,2.2,4.9,338.6,0.47,23.5,27.0,"09:34:56",1
"17/08/12","09:50",0.0,30.1,68.3,1000.8,359.4,2.6,5.2,11.0,0.55,23.7,27.0,"09:45:28",1
"17/08/12","10:00",0.0,28.5,70.6,1000.8,343.0,2.3,5.9,346.0,0.23,22.7,27.0,"09:51:04",1
"17/08/12","10:10",0.0,29.5,68.1,1000.5,351.3,2.1,5.2,347.1,0.34,23.0,27.4,"10:04:00",1
"17/08/12","10:20",0.0,29.7,66.6,1001.0,353.7,2.2,4.7,341.8,0.42,22.9,27.5,"10:14:12",1
"17/08/12","10:30",0.0,29.5,67.4,1000.8,344.5,2.5,5.1,346.2,0.36,22.9,27.7,"10:28:32",1
"17/08/12","10:40",0.0,30.0,66.4,1001.2,351.1,2.2,5.1,339.7,0.48,23.1,27.6,"10:38:16",1
"17/08/12","10:50",0.0,30.9,65.1,1001.5,344.4,2.3,5.4,349.7,0.53,23.6,27.9,"10:43:36",1
"17/08/12","11:00",0.0,29.1,66.9,1001.5,349.7,2.5,5.2,337.4,0.32,22.4,28.0,"10:54:08",1
"17/08/12","11:10",0.0,29.4,67.2,1001.2,346.5,2.6,4.5,337.1,0.34,22.7,28.1,"11:05:36",1
"17/08/12","11:20",0.0,29.2,67.0,1001.0,345.6,2.2,5.0,353.6,0.28,22.5,28.2,"11:16:24",1
"17/08/12","11:30",0.0,30.0,64.8,1000.8,347.3,3.0,5.9,354.2,0.55,22.7,28.3,"11:29:36",1
"17/08/12","11:40",0.0,29.3,65.4,1001.2,358.6,2.5,5.4,337.2,0.36,22.2,28.2,"11:36:56",1
"17/08/12","11:50",0.0,30.0,66.0,1001.5,350.4,2.6,4.8,3.6,0.44,23.0,28.5,"11:49:36",1
"17/08/12","12:00",0.0,30.2,64.4,1001.2,346.2,2.8,5.7,349.1,0.61,22.8,28.5,"11:54:32",1
"17/08/12","12:10",0.0,30.3,65.9,1001.0,345.6,2.5,5.5,327.7,0.56,23.3,28.7,"12:00:24",1
"17/08/12","12:20",0.0,30.5,61.7,1001.5,20.3,2.1,3.9,71.0,0.58,22.4,28.9,"12:12:48",1
"17/08/12","12:30",0.0,30.6,62.9,1001.0,342.2,2.3,6.4,340.5,0.60,22.8,29.2,"12:27:36",1
"17/08/12","12:40",0.0,31.2,59.9,1001.5,10.8,2.0,4.4,9.9,0.60,22.5,29.4,"12:39:44",1
"17/08/12","12:50",0.0,30.7,59.7,1001.5,34.0,1.8,4.2,343.7,0.41,22.0,29.5,"12:44:32",1
"17/08/12","13:00",0.0,30.3,62.1,1001.2,5.1,2.1,4.1,15.2,0.29,22.3,29.4,"12:50:24",1
"17/08/12","13:10",0.0,31.4,60.6,1001.0,1.8,1.8,4.1,345.0,0.42,22.9,29.6,"13:03:20",1
"17/08/12","13:20",0.0,30.5,60.7,1001.0,359.6,2.7,6.5,339.9,0.44,22.1,29.7,"13:17:28",1
"17/08/12","13:30",0.0,29.0,65.0,1000.5,350.4,3.5,6.8,336.5,0.18,21.8,29.6,"13:24:56",1
"17/08/12","13:40",0.0,29.1,63.0,1000.5,354.7,2.7,6.0,336.4,0.21,21.4,29.6,"13:33:52",1
"17/08/12","13:50",0.0,30.5,60.5,1000.0,6.2,2.1,4.0,359.4,0.37,22.0,29.3,"13:44:32",1
"17/08/12","14:00",0.0,31.3,56.7,1000.5,355.3,2.6,4.5,326.8,0.64,21.7,29.7,"13:56:48",1
"17/08/12","14:10",0.0,31.7,57.3,1001.0,0.4,2.2,6.2,343.2,0.56,22.3,29.8,"14:05:20",1
"17/08/12","14:20",0.0,29.8,59.3,1001.0,353.6,2.8,6.0,9.0,0.40,21.0,29.8,"14:12:00",1
"17/08/12","14:30",0.0,29.2,59.8,1000.3,356.1,2.5,5.0,347.9,0.25,20.6,29.7,"14:20:40",1
"17/08/12","14:40",0.0,29.4,60.9,999.8,346.8,2.2,4.5,351.6,0.17,21.1,29.6,"14:35:20",1
"17/08/12","14:50",0.0,30.6,58.8,1000.0,349.9,2.3,6.5,348.3,0.41,21.7,29.6,"14:48:40",1
"17/08/12","15:00",0.0,30.6,58.2,1000.3,355.3,2.7,5.9,354.7,0.45,21.5,29.4,"14:54:40",1
"17/08/12","15:10",0.0,30.4,59.1,1000.3,354.3,2.3,5.0,0.7,0.27,21.6,29.4,"15:06:16",1
"17/08/12","15:20",0.0,30.9,57.7,1000.3,350.7,2.7,6.3,341.7,0.42,21.6,29.4,"15:18:16",1
"17/08/12","15:30",0.0,30.7,59.0,1000.3,346.2,2.3,5.4,341.3,0.30,21.8,29.5,"15:20:32",1
"17/08/12","15:40",0.0,31.2,57.1,1000.3,0.4,2.0,5.9,346.7,0.38,21.7,29.6,"15:35:20",1
"17/08/12","15:50",0.0,30.8,56.0,1000.3,348.2,2.5,5.0,337.8,0.36,21.1,29.6,"15:47:12",1
"17/08/12","16:00",0.0,31.0,54.9,1000.3,356.0,2.6,7.9,345.5,0.34,20.9,29.7,"15:54:56",1
"17/08/12","16:10",0.0,31.2,57.5,1000.0,354.7,2.0,4.1,357.9,0.31,21.9,29.3,"16:03:12",1
"17/08/12","16:20",0.0,31.1,54.9,1000.0,356.3,2.3,5.1,345.0,0.29,21.0,29.6,"16:12:24",1
"17/08/12","16:30",0.0,31.0,54.6,999.8,348.7,2.2,4.8,338.0,0.27,20.8,29.5,"16:28:32",1
"17/08/12","16:40",0.0,30.9,57.1,1000.0,346.6,2.2,4.7,341.9,0.24,21.5,29.4,"16:36:16",1
"17/08/12","16:50",0.0,30.4,58.5,999.6,350.9,2.7,6.5,344.0,0.22,21.4,29.4,"16:42:00",1
"17/08/12","17:00",0.0,30.5,56.7,999.8,341.0,2.0,4.3,346.9,0.19,21.0,29.5,"16:51:44",1
"17/08/12","17:10",0.0,30.3,57.0,999.8,334.9,2.0,4.8,336.0,0.17,20.9,29.3,"17:01:12",1
"17/08/12","17:20",0.0,30.1,57.6,999.8,340.1,2.3,4.0,1.5,0.13,20.9,29.1,"17:18:32",1
"17/08/12","17:30",0.0,29.4,58.2,1000.0,334.2,2.8,6.0,332.1,0.10,20.4,29.3,"17:27:44",1
"17/08/12","17:40",0.0,29.1,61.2,999.6,332.9,2.2,4.9,336.6,0.08,20.9,29.2,"17:30:40",1
"17/08/12","17:50",0.0,29.1,61.0,999.6,355.2,2.2,5.2,350.1,0.08,20.9,29.0,"17:43:52",1
"17/08/12","18:00",0.0,29.0,61.0,999.6,351.7,1.7,3.3,17.6,0.06,20.8,29.0,"17:56:08",1
"17/08/12","18:10",0.0,28.4,62.2,999.8,346.0,2.2,5.9,339.3,0.01,20.5,28.9,"18:07:20",1
"17/08/12","18:20",0.0,27.8,64.1,999.8,344.3,2.0,5.1,25.6,0.00,20.4,28.9,"18:13:52",1
"17/08/12","18:30",0.0,27.3,65.6,1000.3,337.5,1.6,3.2,346.5,0.00,20.3,28.6,"18:24:56",1
"17/08/12","18:40",0.0,26.9,66.6,1000.3,345.6,2.2,7.3,346.4,0.00,20.2,28.6,"18:39:28",1
"17/08/12","18:50",0.0,26.7,67.9,1000.8,352.6,2.1,4.5,342.7,0.00,20.3,28.4,"18:42:32",1
"17/08/12","19:00",0.0,26.4,68.6,1000.5,342.4,2.5,5.2,337.4,0.00,20.2,28.3,"18:56:16",1
"17/08/12","19:10",0.0,26.2,69.7,1000.5,348.2,1.8,4.2,340.2,0.00,20.3,28.2,"19:01:52",1
"17/08/12","19:20",0.0,25.9,71.0,1001.2,337.2,1.3,3.3,344.1,0.00,20.3,28.1,"19:17:36",1
"17/08/12","19:30",0.0,25.5,72.3,1001.2,345.9,1.0,2.1,346.6,0.00,20.2,28.0,"19:23:44",1
"17/08/12","19:40",0.0,25.2,73.2,1001.5,326.7,1.2,3.2,338.9,0.00,20.1,27.8,"19:34:24",1
"17/08/12","19:50",0.0,25.1,73.7,1001.7,320.4,0.8,1.9,331.6,0.00,20.1,27.9,"19:40:16",1
"17/08/12","20:00",0.0,25.0,74.7,1001.5,340.3,1.3,3.3,321.5,0.00,20.2,27.8,"19:56:40",1
"17/08/12","20:10",0.0,24.8,74.9,1001.9,326.0,1.5,2.7,346.4,0.00,20.1,27.7,"20:08:08",1
"17/08/12","20:20",0.0,24.8,74.5,1001.9,331.7,1.7,3.2,320.3,0.00,20.0,27.7,"20:18:08",1
"17/08/12","20:30",0.0,24.7,74.8,1002.6,326.1,1.3,2.8,328.8,0.00,20.0,27.4,"20:27:44",1
"17/08/12","20:40",0.0,24.6,75.0,1002.4,339.4,1.3,3.7,355.5,0.00,19.9,27.3,"20:39:20",1
"17/08/12","20:50",0.0,24.5,75.4,1002.4,330.4,1.8,2.9,339.0,0.00,19.9,27.4,"20:49:12",1
"17/08/12","21:00",0.0,24.4,76.3,1002.9,331.6,2.1,4.7,332.1,0.00,20.0,27.4,"20:57:20",1
"17/08/12","21:10",0.0,24.4,76.6,1002.6,324.6,2.5,4.0,325.9,0.00,20.1,27.2,"21:05:44",1
"17/08/12","21:20",0.0,24.2,77.5,1002.2,329.3,2.6,4.9,332.5,0.00,20.1,26.9,"21:12:48",1
"17/08/12","21:30",0.0,24.2,77.8,1002.6,335.4,2.1,4.3,340.8,0.00,20.1,27.0,"21:22:56",1
"17/08/12","21:40",0.0,24.2,77.7,1002.4,329.4,2.0,3.7,338.5,0.00,20.1,26.7,"21:31:28",1
"17/08/12","21:50",0.0,24.1,78.7,1002.6,327.1,1.5,2.5,349.4,0.00,20.2,26.8,"21:46:24",1
"17/08/12","22:00",0.0,23.8,79.9,1002.6,312.5,0.8,2.4,329.5,0.00,20.2,26.7,"21:50:40",1
"17/08/12","22:10",0.0,23.8,80.3,1002.4,308.3,1.8,4.1,328.8,0.00,20.2,26.7,"22:09:36",1
"17/08/12","22:20",0.0,24.1,79.7,1002.4,316.1,1.8,3.6,339.7,0.00,20.4,26.6,"22:14:24",1
"17/08/12","22:30",0.0,23.8,79.9,1002.4,314.4,1.0,1.4,319.8,0.00,20.2,26.3,"22:29:12",1
"17/08/12","22:40",0.0,23.5,81.3,1002.4,315.3,1.1,2.0,312.4,0.00,20.2,26.4,"22:31:04",1
"17/08/12","22:50",0.0,23.0,83.4,1002.4,303.4,1.0,1.7,317.9,0.00,20.1,26.5,"22:43:28",1
"17/08/12","23:00",0.0,22.6,85.4,1002.2,329.0,0.6,1.3,341.1,0.00,20.1,26.3,"22:54:16",1
"17/08/12","23:10",0.0,22.3,86.4,1002.9,289.5,0.8,1.6,313.1,0.00,20.0,26.4,"23:08:08",1
"17/08/12","23:20",0.0,22.0,87.7,1002.9,310.6,1.1,1.6,330.3,0.00,19.9,26.3,"23:19:44",1
"17/08/12","23:30",0.0,22.0,88.5,1002.6,319.7,1.1,2.4,313.7,0.00,20.1,26.1,"23:20:32",1
"17/08/12","23:40",0.0,21.9,89.4,1002.9,314.5,1.2,2.0,323.1,0.00,20.1,26.1,"23:30:56",1
"17/08/12","23:50",0.0,21.9,89.8,1002.6,316.4,1.0,1.6,324.9,0.00,20.2,26.0,"23:49:20",1
"17/08/12","24:00",0.0,21.9,90.0,1002.2,322.9,1.1,1.7,333.8,0.00,20.2,26.0,"23:56:48",1
